Weather History for West Memphis, AR

Change the Weather History Date:

Tuesday, February 26, 2013

  Actual Average Record
Temperature  
Mean Temperature 47 °F -  
Max Temperature 55 °F 56 °F 76 °F (1986)
Min Temperature 39 °F 36 °F 19 °F (1980)
Degree Days  
Heating Degree Days 18    
Moisture  
Dew Point 39 °F    
Average Humidity 80    
Maximum Humidity 94    
Minimum Humidity 65    
Precipitation  
Precipitation 0.00 in - - ()
Sea Level Pressure  
Sea Level Pressure 29.51 in    
Wind  
Wind Speed 11 mph (SW)    
Max Wind Speed 16 mph    
Max Gust Speed 29 mph    
Visibility 10 miles    
Events Rain    
Averages and records for this station are not official NWS values.
T = Trace of Precipitation, MM = Missing Value Source: NWS Daily Summary

Daily Weather History Graph

Daily Weather History Graph

Search for Another Location

Airport:

Trip Planner

Search our weather history database for the weather conditions in past years. The results will help you decide how hot, cold, wet, or windy it might be!

Date:

Astronomy

Feb. 26, 2013 Rise Set
Actual Time 6:33 AM CST 5:54 PM CST
Civil Twilight 6:08 AM CST 6:19 PM CST
Nautical Twilight 5:38 AM CST 6:49 PM CST
Astronomical Twilight 5:09 AM CST 7:18 PM CST
Moon 7:05 PM CST 6:40 AM CST
Length of Visible Light 12h 11m
Length of Day
11h 20m
Full, 99% of the Moon is Illuminated
Feb 26
Full
Mar 4
Last Quarter
Mar 11
New
Mar 19
First Quarter
Mar 27
Full

Hourly Weather History & Observations

Time (CST) Temp. Windchill Dew Point Humidity Pressure Visibility Wind Dir Wind Speed Gust Speed Precip Events Conditions
12:31 AM 53.6 °F - 51.8 °F 94% 29.32 in 10.0 mi South 15.0 mph - N/A   Mostly Cloudy
12:53 AM 55.0 °F - 52.0 °F 89% 29.34 in 10.0 mi SSW 11.5 mph 26.5 mph N/A   Overcast
1:15 AM 53.6 °F - 50.0 °F 88% 29.35 in 10.0 mi WSW 9.2 mph 18.4 mph N/A   Overcast
1:53 AM 50.0 °F - 48.0 °F 93% 29.35 in 10.0 mi Variable 6.9 mph - N/A   Mostly Cloudy
2:10 AM 48.2 °F - 46.4 °F 93% 29.36 in 10.0 mi SSW 9.2 mph 17.3 mph N/A   Mostly Cloudy
2:41 AM 48.2 °F - 44.6 °F 87% 29.37 in 10.0 mi SW 9.2 mph - N/A   Overcast
2:53 AM 48.0 °F - 45.0 °F 89% 29.37 in 10.0 mi SW 8.1 mph - N/A   Overcast
3:08 AM 48.2 °F - 44.6 °F 87% 29.38 in 10.0 mi WSW 6.9 mph 18.4 mph N/A   Overcast
3:37 AM 46.4 °F 43.5 °F 44.6 °F 93% 29.38 in 10.0 mi Variable 5.8 mph - N/A   Overcast
3:53 AM 48.0 °F - 45.0 °F 89% 29.38 in 10.0 mi SW 9.2 mph - N/A   Overcast
4:12 AM 46.4 °F 43.5 °F 44.6 °F 93% 29.38 in 10.0 mi SW 5.8 mph - N/A   Mostly Cloudy
4:45 AM 46.4 °F 41.5 °F 42.8 °F 87% 29.39 in 10.0 mi SW 10.4 mph 19.6 mph N/A   Mostly Cloudy
4:53 AM 46.0 °F 40.6 °F 41.0 °F 83% 29.39 in 10.0 mi SW 11.5 mph 19.6 mph N/A   Mostly Cloudy
5:53 AM 45.0 °F 40.6 °F 39.9 °F 82% 29.41 in 10.0 mi SW 8.1 mph 19.6 mph N/A   Overcast
6:53 AM 44.1 °F 40.1 °F 39.0 °F 82% 29.42 in 10.0 mi SW 6.9 mph 16.1 mph N/A   Overcast
7:53 AM 44.1 °F 38.6 °F 37.9 °F 79% 29.45 in 10.0 mi SW 10.4 mph 21.9 mph N/A   Overcast
8:53 AM 44.1 °F 37.7 °F 37.0 °F 76% 29.48 in 10.0 mi SSW 12.7 mph 20.7 mph N/A   Overcast
9:15 AM 44.6 °F 37.4 °F 35.6 °F 71% 29.48 in 10.0 mi SSW 16.1 mph 24.2 mph N/A   Overcast
9:30 AM 44.6 °F 39.2 °F 37.4 °F 76% 29.49 in 10.0 mi SSW 10.4 mph 25.3 mph N/A   Overcast
9:53 AM 43.0 °F 36.8 °F 37.0 °F 80% 29.49 in 10.0 mi SW 11.5 mph 19.6 mph N/A   Overcast
10:53 AM 42.1 °F 34.5 °F 37.0 °F 82% 29.50 in 10.0 mi SW 15.0 mph 26.5 mph 0.00 in Rain Light Rain
12:53 PM 42.1 °F 35.2 °F 36.0 °F 79% 29.53 in 10.0 mi SW 12.7 mph 23.0 mph N/A   Overcast
1:53 PM 42.1 °F 35.2 °F 34.0 °F 73% 29.57 in 10.0 mi WSW 12.7 mph 25.3 mph N/A   Overcast
2:13 PM 42.8 °F 37.0 °F 33.8 °F 70% 29.57 in 10.0 mi WSW 10.4 mph 21.9 mph N/A   Overcast
2:53 PM 44.1 °F 37.7 °F 34.0 °F 68% 29.57 in 10.0 mi WSW 12.7 mph 23.0 mph N/A   Overcast
3:53 PM 43.0 °F 36.0 °F 32.0 °F 65% 29.60 in 10.0 mi West 13.8 mph 28.8 mph N/A   Overcast
4:53 PM 42.1 °F 35.2 °F 33.1 °F 70% 29.63 in 10.0 mi West 12.7 mph 26.5 mph N/A   Overcast
5:53 PM 42.1 °F 35.7 °F 33.1 °F 70% 29.68 in 10.0 mi WSW 11.5 mph 24.2 mph N/A   Overcast
6:53 PM 41.0 °F 33.9 °F 33.1 °F 73% 29.72 in 10.0 mi West 12.7 mph 24.2 mph N/A   Overcast
7:53 PM 41.0 °F 35.8 °F 33.1 °F 73% 29.75 in 10.0 mi West 8.1 mph 18.4 mph N/A   Overcast
8:53 PM 41.0 °F 35.8 °F 33.1 °F 73% 29.78 in 10.0 mi West 8.1 mph 16.1 mph N/A   Overcast
9:53 PM 41.0 °F 35.2 °F 33.1 °F 73% 29.80 in 10.0 mi West 9.2 mph - N/A   Overcast
10:53 PM 39.9 °F 35.8 °F 33.1 °F 77% 29.82 in 10.0 mi Variable 5.8 mph - N/A   Overcast
11:53 PM 39.9 °F 35.8 °F 32.0 °F 73% 29.84 in 10.0 mi West 5.8 mph - N/A   Overcast